Flag for Jordan Weather past 2 weeks in Madaba, Jordan

Now
55 °F

Clear.


Feels Like: 54 °F
Forecast: 42 / 53 °F
Wind: 6 mph from Northwest

Location: Queen Alia Airport

Current Time: Dec 20, 2014 at 6:16:29 PM

Latest Report: Dec 20, 2014 at 5:00 PM


Visibility: 4 mi

Pressure: 30.12 "Hg

Humidity: 72%

Dew point: 46 °F

Location of MadabaLocation

Historic Weather in Madaba — Graph

°F

Madaba temperature yesterday

Maximum temperature yesterday: 57 °F (at 1:00 PM)
Minimum temperature yesterday: 43 °F (at 6:00 AM)
Average temperature yesterday: 50 °F

Past Weeks' High & Low Weather Summary

 TemperatureHumidityPressure
High73 °F (Dec 6, 2:00 PM)100% (Dec 10, 4:00 AM)30.30 "Hg (Dec 10, 4:00 AM)
Low36 °F (Dec 16, 7:00 AM)29% (Dec 9, 12:00 AM)29.86 "Hg (Dec 9, 3:00 AM)
Average54 °F70%30.11 "Hg
* Reported Dec 5 5:00 PM — Dec 20 5:00 PM, Madaba, Weather by CustomWeather, © 2014

Note: Actual official high and low records may vary slightly from our data, if they occured in-between our weather recording intervals... More about our weather records

Advertising

Madaba weather history for previous 24 hours

 ConditionsComfort  
Time TempWeatherWind HumidityBarometerVisibility
5:00 PM
Dec 20
55 °FClear.6 mph72%30.12 "Hg4 mi
4:00 PM59 °FScattered clouds.9 mph59%30.09 "Hg5 mi
3:00 PM61 °FScattered clouds.9 mph52%30.07 "Hg5 mi
2:00 PM61 °FScattered clouds.9 mph48%30.07 "Hg5 mi
1:00 PM59 °FScattered clouds.No wind59%30.09 "Hg4 mi
12:00 PM54 °FFog.No wind94%30.09 "Hg2 mi
11:00 AM50 °FFog.No wind94%30.12 "Hg0 mi
10:00 AM46 °FFog.No wind93%30.12 "Hg0 mi
9:00 AM43 °FFog.No wind93%30.12 "Hg0 mi
8:00 AM43 °FFog.No wind93%30.12 "Hg0 mi
7:00 AM41 °FFog.No wind100%30.12 "Hg0 mi
5:00 AM43 °FFog.No wind93%30.09 "Hg0 mi
4:00 AM45 °FFog.No wind93%30.12 "Hg1 mi
3:00 AM45 °FFog.No wind93%30.12 "Hg1 mi
2:00 AM45 °FFog.No wind93%30.12 "Hg2 mi
12:00 AM46 °FFog.No wind87%30.15 "Hg2 mi
11:00 PM
Dec 19
46 °FClear.No wind82%30.12 "Hg4 mi
10:00 PM48 °FClear.No wind82%30.12 "Hg4 mi
9:00 PM50 °FClear.No wind76%30.12 "Hg4 mi
8:00 PM50 °FClear.No wind82%30.12 "Hg4 mi
7:00 PM52 °FClear.No wind77%30.09 "Hg4 mi
Weather by CustomWeather, © 2014

See weather overviewHow to use our weather pages